Time,TemperatureF,DewpointF,PressureIn,WindDirection,WindDirectionDegrees,WindSpeedMPH,WindSpeedGustMPH,Humidity,HourlyPrecipIn,Conditions,Clouds,dailyrainin,SolarRadiationWatts/m^2,SoftwareType,DateUTC
2013-10-07 00:03:00,65.2,60.0,29.98,SE,138,3.0,-999.0,84,-99.99,,,0.00,0,weatherlink.com 1.10,2013-10-07 04:03:00,
2013-10-07 00:18:00,65.0,60.0,29.98,SE,126,7.0,-999.0,84,-99.99,,,0.00,0,weatherlink.com 1.10,2013-10-07 04:18:00,
2013-10-07 00:33:00,64.9,60.0,29.98,SW,232,15.0,-999.0,84,-99.99,,,0.00,0,weatherlink.com 1.10,2013-10-07 04:33:00,
2013-10-07 00:48:00,65.1,60.0,29.98,SSE,168,6.0,-999.0,84,-99.99,,,0.00,0,weatherlink.com 1.10,2013-10-07 04:48:00,
2013-10-07 01:03:00,65.1,61.0,29.98,SE,126,10.0,-999.0,85,-99.99,,,0.00,0,weatherlink.com 1.10,2013-10-07 05:03:00,
2013-10-07 01:18:00,65.1,61.0,29.98,SSE,165,14.0,-999.0,85,-99.99,,,0.00,0,weatherlink.com 1.10,2013-10-07 05:18:00,
2013-10-07 01:33:00,65.3,61.0,29.97,SSW,196,10.0,-999.0,85,-99.99,,,0.00,0,weatherlink.com 1.10,2013-10-07 05:33:00,
2013-10-07 01:48:00,65.4,61.0,29.97,SSW,192,9.0,-999.0,84,-99.99,,,0.00,0,weatherlink.com 1.10,2013-10-07 05:48:00,
2013-10-07 02:03:00,65.5,61.0,29.96,SSE,161,2.0,-999.0,84,-99.99,,,0.00,0,weatherlink.com 1.10,2013-10-07 06:03:00,
2013-10-07 02:18:00,65.5,61.0,29.95,South,183,4.0,-999.0,84,-99.99,,,0.00,0,weatherlink.com 1.10,2013-10-07 06:18:00,
2013-10-07 02:33:00,65.5,60.0,29.95,SSW,207,10.0,-999.0,83,-99.99,,,0.00,0,weatherlink.com 1.10,2013-10-07 06:33:00,
2013-10-07 02:48:00,65.6,60.0,29.94,SE,145,5.0,-999.0,83,-99.99,,,0.00,0,weatherlink.com 1.10,2013-10-07 06:48:00,
2013-10-07 03:03:00,65.7,60.0,29.93,SE,146,15.0,-999.0,82,-99.99,,,0.00,0,weatherlink.com 1.10,2013-10-07 07:03:00,
2013-10-07 03:18:00,65.6,60.0,29.93,South,182,5.0,-999.0,81,-99.99,,,0.00,0,weatherlink.com 1.10,2013-10-07 07:18:00,
2013-10-07 03:33:00,65.2,59.0,29.93,South,176,15.0,-999.0,80,-99.99,,,0.00,0,weatherlink.com 1.10,2013-10-07 07:33:00,
2013-10-07 03:48:00,65.0,58.0,29.92,South,170,14.0,-999.0,79,-99.99,,,0.00,0,weatherlink.com 1.10,2013-10-07 07:48:00,
2013-10-07 04:03:00,64.9,59.0,29.91,SE,138,17.0,-999.0,80,-99.99,,,0.00,0,weatherlink.com 1.10,2013-10-07 08:03:00,
2013-10-07 04:18:00,64.8,58.0,29.91,South,182,3.0,-999.0,79,-99.99,,,0.00,0,weatherlink.com 1.10,2013-10-07 08:18:00,
2013-10-07 04:33:00,64.7,58.0,29.90,SW,217,11.0,-999.0,80,-99.99,,,0.00,0,weatherlink.com 1.10,2013-10-07 08:33:00,
2013-10-07 04:48:00,64.7,58.0,29.90,SSE,158,6.0,-999.0,79,-99.99,,,0.00,0,weatherlink.com 1.10,2013-10-07 08:48:00,
2013-10-07 05:03:00,65.0,58.0,29.89,SSE,155,3.0,-999.0,78,-99.99,,,0.00,0,weatherlink.com 1.10,2013-10-07 09:03:00,
2013-10-07 05:18:00,65.2,58.0,29.89,SE,136,9.0,-999.0,78,-99.99,,,0.00,0,weatherlink.com 1.10,2013-10-07 09:18:00,
2013-10-07 05:33:00,65.4,58.0,29.89,SE,128,22.0,-999.0,78,-99.99,,,0.00,0,weatherlink.com 1.10,2013-10-07 09:33:00,
2013-10-07 05:48:00,65.5,58.0,29.88,ESE,120,2.0,-999.0,78,-99.99,,,0.00,0,weatherlink.com 1.10,2013-10-07 09:48:00,
2013-10-07 06:03:00,65.6,58.0,29.87,SSW,192,10.0,-999.0,77,-99.99,,,0.00,0,weatherlink.com 1.10,2013-10-07 10:03:00,
2013-10-07 06:18:00,65.7,58.0,29.87,South,191,12.0,-999.0,77,-99.99,,,0.00,0,weatherlink.com 1.10,2013-10-07 10:18:00,
2013-10-07 06:33:00,65.8,59.0,29.88,SSE,161,15.0,-999.0,78,-99.99,,,0.00,0,weatherlink.com 1.10,2013-10-07 10:33:00,
2013-10-07 06:48:00,66.1,58.0,29.87,SSW,196,23.0,-999.0,76,-99.99,,,0.00,0,weatherlink.com 1.10,2013-10-07 10:48:00,
2013-10-07 07:03:00,66.2,58.0,29.88,East,84,4.0,-999.0,75,-99.99,,,0.00,0,weatherlink.com 1.10,2013-10-07 11:03:00,
2013-10-07 07:18:00,66.2,58.0,29.87,SE,146,11.0,-999.0,74,-99.99,,,0.00,14,weatherlink.com 1.10,2013-10-07 11:18:00,
2013-10-07 07:33:00,66.0,58.0,29.86,SE,144,18.0,-999.0,74,-99.99,,,0.00,32,weatherlink.com 1.10,2013-10-07 11:33:00,
2013-10-07 07:48:00,66.0,58.0,29.86,SSE,160,6.0,-999.0,75,-99.99,,,0.00,39,weatherlink.com 1.10,2013-10-07 11:48:00,
2013-10-07 08:03:00,66.2,58.0,29.86,SSE,154,10.0,-999.0,76,-99.99,,,0.00,86,weatherlink.com 1.10,2013-10-07 12:03:00,
2013-10-07 08:18:00,66.5,58.0,29.86,South,188,12.0,-999.0,75,-99.99,,,0.00,104,weatherlink.com 1.10,2013-10-07 12:18:00,
2013-10-07 08:33:00,66.6,58.0,29.85,SSE,164,10.0,-999.0,74,-99.99,,,0.00,81,weatherlink.com 1.10,2013-10-07 12:33:00,
2013-10-07 08:48:00,66.8,58.0,29.85,SSE,158,10.0,-999.0,73,-99.99,,,0.00,98,weatherlink.com 1.10,2013-10-07 12:48:00,
2013-10-07 09:03:00,67.4,58.0,29.84,SSW,212,11.0,-999.0,73,-99.99,,,0.00,111,weatherlink.com 1.10,2013-10-07 13:03:00,
2013-10-07 09:18:00,67.9,59.0,29.84,SSE,151,4.0,-999.0,72,-99.99,,,0.00,237,weatherlink.com 1.10,2013-10-07 13:18:00,
2013-10-07 09:34:00,68.3,59.0,29.82,WSW,238,10.0,-999.0,71,-99.99,,,0.00,200,weatherlink.com 1.10,2013-10-07 13:34:00,
2013-10-07 10:03:00,67.5,59.0,29.81,WSW,252,14.0,-999.0,74,-99.99,,,0.00,74,weatherlink.com 1.10,2013-10-07 14:03:00,
2013-10-07 10:18:00,67.7,59.0,29.80,SSE,164,21.0,-999.0,74,-99.99,,,0.00,139,weatherlink.com 1.10,2013-10-07 14:18:00,
2013-10-07 10:33:00,67.7,60.0,29.80,South,171,9.0,-999.0,75,-99.99,,,0.00,105,weatherlink.com 1.10,2013-10-07 14:33:00,
2013-10-07 10:48:00,68.1,60.0,29.79,SSE,165,7.0,-999.0,74,-99.99,,,0.00,121,weatherlink.com 1.10,2013-10-07 14:48:00,
2013-10-07 11:03:00,68.8,60.0,29.78,ESE,113,15.0,-999.0,74,-99.99,,,0.00,185,weatherlink.com 1.10,2013-10-07 15:03:00,
2013-10-07 11:18:00,68.6,60.0,29.77,South,184,3.0,-999.0,75,-99.99,,,0.00,253,weatherlink.com 1.10,2013-10-07 15:18:00,
2013-10-07 11:33:00,68.2,60.0,29.75,SE,133,13.0,-999.0,76,-99.99,,,0.00,265,weatherlink.com 1.10,2013-10-07 15:33:00,
2013-10-07 11:48:00,68.1,60.0,29.76,ESE,114,6.0,-999.0,76,-99.99,,,0.00,123,weatherlink.com 1.10,2013-10-07 15:48:00,
2013-10-07 12:03:00,66.3,60.0,29.74,SE,134,14.0,-999.0,81,-99.99,,,0.00,229,weatherlink.com 1.10,2013-10-07 16:03:00,
2013-10-07 12:18:00,66.3,61.0,29.72,SSE,161,14.0,-999.0,82,-99.99,,,0.00,265,weatherlink.com 1.10,2013-10-07 16:18:00,
2013-10-07 12:33:00,65.8,61.0,29.71,SSE,151,13.0,-999.0,84,-99.99,,,0.00,236,weatherlink.com 1.10,2013-10-07 16:33:00,
2013-10-07 12:48:00,66.1,62.0,29.69,East,94,12.0,-999.0,86,-99.99,,,0.01,185,weatherlink.com 1.10,2013-10-07 16:48:00,
2013-10-07 13:03:00,66.6,62.0,29.68,SE,134,16.0,-999.0,86,-99.99,,,0.01,137,weatherlink.com 1.10,2013-10-07 17:03:00,
2013-10-07 13:18:00,67.1,63.0,29.66,SSW,205,11.0,-999.0,86,-99.99,,,0.01,74,weatherlink.com 1.10,2013-10-07 17:18:00,
2013-10-07 13:33:00,67.6,63.0,29.66,South,181,12.0,-999.0,85,-99.99,,,0.02,35,weatherlink.com 1.10,2013-10-07 17:33:00,
2013-10-07 13:48:00,67.6,63.0,29.64,SSW,205,30.0,-999.0,85,-99.99,,,0.03,37,weatherlink.com 1.10,2013-10-07 17:48:00,
2013-10-07 14:03:00,67.2,63.0,29.70,SSW,207,6.0,-999.0,87,-99.99,,,0.17,0,weatherlink.com 1.10,2013-10-07 18:03:00,
2013-10-07 14:18:00,61.6,58.0,29.70,WSW,240,9.0,-999.0,88,-99.99,,,0.57,12,weatherlink.com 1.10,2013-10-07 18:18:00,
2013-10-07 14:33:00,61.1,59.0,29.70,SW,227,3.0,-999.0,91,-99.99,,,0.61,16,weatherlink.com 1.10,2013-10-07 18:33:00,
2013-10-07 14:48:00,61.0,59.0,29.71,WSW,247,1.0,-999.0,92,-99.99,,,0.65,14,weatherlink.com 1.10,2013-10-07 18:48:00,
2013-10-07 15:03:00,60.1,57.0,29.72,West,279,6.0,-999.0,90,-99.99,,,0.71,127,weatherlink.com 1.10,2013-10-07 19:03:00,
2013-10-07 15:18:00,57.4,55.0,29.72,WNW,288,9.0,-999.0,91,-99.99,,,0.72,160,weatherlink.com 1.10,2013-10-07 19:18:00,
2013-10-07 15:33:00,56.6,54.0,29.73,WNW,286,3.0,-999.0,91,-99.99,,,0.73,178,weatherlink.com 1.10,2013-10-07 19:33:00,
2013-10-07 15:48:00,56.5,54.0,29.74,WSW,245,8.0,-999.0,92,-99.99,,,0.73,60,weatherlink.com 1.10,2013-10-07 19:48:00,
2013-10-07 16:03:00,56.1,54.0,29.74,WSW,252,4.0,-999.0,91,-99.99,,,0.73,39,weatherlink.com 1.10,2013-10-07 20:03:00,
2013-10-07 16:18:00,55.5,53.0,29.75,WNW,290,13.0,-999.0,91,-99.99,,,0.74,14,weatherlink.com 1.10,2013-10-07 20:18:00,
2013-10-07 16:33:00,54.0,51.0,29.77,West,265,5.0,-999.0,89,-99.99,,,0.76,19,weatherlink.com 1.10,2013-10-07 20:33:00,
2013-10-07 16:48:00,53.3,50.0,29.80,WSW,242,4.0,-999.0,89,-99.99,,,0.78,16,weatherlink.com 1.10,2013-10-07 20:48:00,
2013-10-07 17:03:00,53.0,50.0,29.80,West,280,4.0,-999.0,89,-99.99,,,0.78,14,weatherlink.com 1.10,2013-10-07 21:03:00,
2013-10-07 17:18:00,52.6,50.0,29.81,WSW,252,6.0,-999.0,89,-99.99,,,0.78,19,weatherlink.com 1.10,2013-10-07 21:18:00,
2013-10-07 17:33:00,52.4,50.0,29.82,WSW,242,1.0,-999.0,90,-99.99,,,0.78,0,weatherlink.com 1.10,2013-10-07 21:33:00,
2013-10-07 17:48:00,52.3,50.0,29.83,WSW,242,4.0,-999.0,91,-99.99,,,0.78,11,weatherlink.com 1.10,2013-10-07 21:48:00,
2013-10-07 18:03:00,52.4,50.0,29.83,SSW,196,1.0,-999.0,91,-99.99,,,0.78,9,weatherlink.com 1.10,2013-10-07 22:03:00,
2013-10-07 18:18:00,52.2,50.0,29.84,SSW,201,3.0,-999.0,91,-99.99,,,0.78,9,weatherlink.com 1.10,2013-10-07 22:18:00,
2013-10-07 18:33:00,52.1,50.0,29.86,SSW,200,3.0,-999.0,91,-99.99,,,0.78,11,weatherlink.com 1.10,2013-10-07 22:33:00,
2013-10-07 18:48:00,51.9,49.0,29.86,SSW,207,6.0,-999.0,91,-99.99,,,0.78,0,weatherlink.com 1.10,2013-10-07 22:48:00,
2013-10-07 19:03:00,51.8,49.0,29.87,SSW,201,1.0,-999.0,90,-99.99,,,0.78,0,weatherlink.com 1.10,2013-10-07 23:03:00,
2013-10-07 19:18:00,51.8,49.0,29.87,SW,219,2.0,-999.0,90,-99.99,,,0.78,0,weatherlink.com 1.10,2013-10-07 23:18:00,
2013-10-07 19:33:00,51.5,49.0,29.88,SW,215,4.0,-999.0,90,-99.99,,,0.78,0,weatherlink.com 1.10,2013-10-07 23:33:00,
2013-10-07 19:48:00,51.6,49.0,29.89,WSW,255,3.0,-999.0,90,-99.99,,,0.78,0,weatherlink.com 1.10,2013-10-07 23:48:00,
2013-10-07 20:03:00,51.9,49.0,29.89,SW,222,0.0,-999.0,89,-99.99,,,0.78,0,weatherlink.com 1.10,2013-10-08 00:03:00,
2013-10-07 20:18:00,51.9,49.0,29.90,SW,223,0.0,-999.0,88,-99.99,,,0.78,0,weatherlink.com 1.10,2013-10-08 00:18:00,
2013-10-07 20:33:00,52.1,48.0,29.90,West,268,10.0,-999.0,86,-99.99,,,0.78,0,weatherlink.com 1.10,2013-10-08 00:33:00,
2013-10-07 20:48:00,52.3,47.0,29.91,NW,310,7.0,-999.0,83,-99.99,,,0.78,0,weatherlink.com 1.10,2013-10-08 00:48:00,
2013-10-07 21:03:00,52.2,47.0,29.91,WSW,257,3.0,-999.0,82,-99.99,,,0.78,0,weatherlink.com 1.10,2013-10-08 01:03:00,
2013-10-07 21:18:00,51.9,46.0,29.91,WNW,301,7.0,-999.0,81,-99.99,,,0.78,0,weatherlink.com 1.10,2013-10-08 01:18:00,
2013-10-07 21:33:00,51.5,45.0,29.92,WSW,241,3.0,-999.0,78,-99.99,,,0.78,0,weatherlink.com 1.10,2013-10-08 01:33:00,
2013-10-07 21:48:00,51.3,44.0,29.92,WSW,247,4.0,-999.0,77,-99.99,,,0.78,0,weatherlink.com 1.10,2013-10-08 01:48:00,
2013-10-07 22:03:00,50.9,44.0,29.92,SW,217,4.0,-999.0,77,-99.99,,,0.78,0,weatherlink.com 1.10,2013-10-08 02:03:00,
2013-10-07 22:18:00,50.4,43.0,29.93,WSW,241,2.0,-999.0,75,-99.99,,,0.78,0,weatherlink.com 1.10,2013-10-08 02:18:00,
2013-10-07 22:33:00,50.3,42.0,29.95,WSW,250,12.0,-999.0,74,-99.99,,,0.78,0,weatherlink.com 1.10,2013-10-08 02:33:00,
2013-10-07 22:48:00,50.4,42.0,29.94,WNW,292,5.0,-999.0,72,-99.99,,,0.78,0,weatherlink.com 1.10,2013-10-08 02:48:00,
2013-10-07 23:03:00,50.1,42.0,29.95,WSW,248,5.0,-999.0,73,-99.99,,,0.78,0,weatherlink.com 1.10,2013-10-08 03:03:00,
2013-10-07 23:18:00,49.7,41.0,29.95,West,263,3.0,-999.0,73,-99.99,,,0.78,0,weatherlink.com 1.10,2013-10-08 03:18:00,
2013-10-07 23:33:00,49.5,42.0,29.96,SSW,200,1.0,-999.0,74,-99.99,,,0.78,0,weatherlink.com 1.10,2013-10-08 03:33:00,
2013-10-07 23:48:00,49.4,41.0,29.96,South,186,0.0,-999.0,74,-99.99,,,0.78,0,weatherlink.com 1.10,2013-10-08 03:48:00,